TimeAKDT,TemperatureF,Dew PointF,Humidity,Sea Level PressureIn,VisibilityMPH,Wind Direction,Wind SpeedMPH,Gust SpeedMPH,PrecipitationIn,Events,Conditions,WindDirDegrees,DateUTC
12:56 AM,55.0,30.9,40,29.97,10.0,ENE,9.2,-,N/A,,Clear,70,2013-05-25 08:56:00
1:56 AM,53.1,30.0,41,29.97,10.0,East,8.1,-,N/A,,Clear,80,2013-05-25 09:56:00
2:56 AM,51.1,30.0,44,29.98,10.0,East,6.9,-,N/A,,Clear,80,2013-05-25 10:56:00
3:56 AM,48.0,30.0,50,29.98,10.0,ENE,4.6,-,N/A,,Clear,60,2013-05-25 11:56:00
4:56 AM,48.0,30.0,50,29.99,10.0,ENE,5.8,-,N/A,,Clear,70,2013-05-25 12:56:00
5:56 AM,48.0,30.0,50,29.98,10.0,ENE,4.6,-,N/A,,Clear,70,2013-05-25 13:56:00
6:56 AM,51.1,30.9,46,29.98,10.0,Calm,Calm,-,N/A,,Clear,0,2013-05-25 14:56:00
7:56 AM,55.0,30.9,40,29.97,10.0,Calm,Calm,-,N/A,,Clear,0,2013-05-25 15:56:00
8:56 AM,59.0,30.9,35,29.96,10.0,East,3.5,-,N/A,,Clear,100,2013-05-25 16:56:00
9:56 AM,63.0,30.9,30,29.94,10.0,Calm,Calm,-,N/A,,Clear,0,2013-05-25 17:56:00
10:56 AM,66.0,28.9,25,29.93,10.0,SSW,3.5,-,N/A,,Clear,200,2013-05-25 18:56:00
11:56 AM,68.0,28.0,22,29.91,10.0,Calm,Calm,-,N/A,,Clear,0,2013-05-25 19:56:00
12:56 PM,71.1,28.0,20,29.90,10.0,Variable,3.5,-,N/A,,Clear,0,2013-05-25 20:56:00
1:56 PM,73.0,28.0,19,29.88,10.0,SE,8.1,-,N/A,,Clear,140,2013-05-25 21:56:00
2:56 PM,73.0,24.1,16,29.87,10.0,SSE,8.1,-,N/A,,Clear,150,2013-05-25 22:56:00
3:56 PM,75.0,24.1,15,29.86,10.0,Calm,Calm,-,N/A,,Clear,0,2013-05-25 23:56:00
4:56 PM,75.0,21.9,14,29.84,10.0,South,5.8,-,N/A,,Clear,190,2013-05-26 00:56:00
5:56 PM,75.0,23.0,14,29.82,10.0,NW,8.1,-,N/A,,Clear,310,2013-05-26 01:56:00
6:56 PM,75.0,21.9,14,29.81,10.0,NW,3.5,-,N/A,,Clear,310,2013-05-26 02:56:00
7:56 PM,73.9,21.9,14,29.80,10.0,Calm,Calm,-,N/A,,Scattered Clouds,0,2013-05-26 03:56:00
8:56 PM,71.1,26.1,19,29.80,10.0,West,20.7,-,N/A,,Mostly Cloudy,260,2013-05-26 04:56:00
9:56 PM,68.0,27.0,21,29.81,10.0,West,18.4,-,N/A,,Clear,260,2013-05-26 05:56:00
10:56 PM,64.0,28.9,27,29.83,10.0,WSW,10.4,-,N/A,,Clear,240,2013-05-26 06:56:00
11:56 PM,62.1,30.0,30,29.84,10.0,WNW,3.5,-,N/A,,Clear,290,2013-05-26 07:56:00